Location: Biltmore Gardens
(41.6070°N, 83.4666°W)
Time: 15:08:17
(UTC+00:00)

Cosmos 1538 Rocket - Pass Details

Date: 14 July 2020
Orbit: 753 x 791 km, 74.0° (Epoch: 13 August)

Event Time Altitude Azimuth Distance (km) Brightness Sun altitude
Rises 01:50:31 0° 202° (SSW) 3,268 7.1 -7.5°
Reaches altitude 10° 01:52:54 10° 203° (SSW) 2,340 6.4 -7.9°
Maximum altitude 01:58:14 77° 290° (WNW) 806 4.3 -8.6°
Drops below altitude 10° 02:03:33 10° 17° (NNE) 2,334 6.8 -9.4°
Sets 02:05:56 0° 19° (NNE) 3,259 7.6 -9.7°
